Location: Long Geng
(2.6167°N, 114.1333°E)
Time: 13:49:37
(UTC+00:00)

Centaur D-1A AC-32 - Pass Details

Date: 14 May 2021
Orbit: 566 x 36447 km, 26.2° (Epoch: 15 June)

Event Time Altitude Azimuth Distance (km) Brightness Sun altitude
Exits shadow 21:04:20 18° 200° (SSW) 1,518 3.7 -16.9°
Maximum altitude 21:06:08 27° 155° (SSE) 1,104 3.4 -16.5°
Drops below altitude 10° 21:09:13 10° 92° (E) 1,997 5.8 -15.8°
Sets 21:12:09 0° 78° (ENE) 3,441 7.7 -15.1°
